Pontiac, MI

11:35 AM EDT on July 26, 2017 (GMT -0400)
Oakland County International

Weather History for KPTK - November, 2014

Change the Weather History Date:

Sunday, November 9, 2014

  Actual Average Record
Temperature  
Mean Temperature 37 °F -  
Max Temperature 41 °F 46 °F 73 °F (1999)
Min Temperature 33 °F 32 °F 18 °F (2003)
Degree Days  
Heating Degree Days 28    
Moisture  
Dew Point 28 °F    
Average Humidity 67    
Maximum Humidity 79    
Minimum Humidity 55    
Precipitation  
Precipitation 0.00 in - - ()
Sea Level Pressure  
Sea Level Pressure 29.87 in    
Wind  
Wind Speed 7 mph (SW)    
Max Wind Speed 13 mph    
Max Gust Speed 24 mph    
Visibility 10 miles    
Events      
Averages and records for this station are not official NWS values.
T = Trace of Precipitation, MM = Missing Value Source: NWS Daily Summary

Daily Weather History Graph

Daily Weather History Graph

Search for Another Location

Airport or City:

Trip Planner

Search our weather history database for the weather conditions in past years. The results will help you decide how hot, cold, wet, or windy it might be!

Date:

Astronomy

Nov. 09, 2014 Rise Set
Actual Time 7:17 AM EST 5:16 PM EST
Civil Twilight 6:47 AM EST 5:46 PM EST
Nautical Twilight 6:13 AM EST 6:20 PM EST
Astronomical Twilight 5:40 AM EST 6:53 PM EST
Moon 7:47 PM EST (11/9) 9:50 AM EST (11/9)
Length of Visible Light 10h 59m
Length of Day
9h 59m
Waning Gibbous, 91% of the Moon is Illuminated
Nov 9
Waning Gibbous
Nov 14
Last Quarter
Nov 22
New
Nov 29
First Quarter
Dec 6
Full

Hourly Weather History & Observations

Time (EST) Temp. Windchill Dew Point Humidity Pressure Visibility Wind Dir Wind Speed Gust Speed Precip Events Conditions
12:53 AM 37.0 °F 31.0 °F 30.9 °F 79% 29.89 in 10.0 mi WSW 8.1 mph - N/A   Overcast
1:53 AM 36.0 °F 28.0 °F 28.9 °F 76% 29.91 in 10.0 mi West 11.5 mph - N/A   Overcast
2:53 AM 36.0 °F 31.1 °F 28.0 °F 73% 29.91 in 10.0 mi West 5.8 mph - N/A   Mostly Cloudy
3:53 AM 34.0 °F 29.8 °F 26.1 °F 73% 29.91 in 10.0 mi WSW 4.6 mph - N/A   Partly Cloudy
4:53 AM 33.1 °F 30.0 °F 27.0 °F 78% 29.90 in 10.0 mi SSW 3.5 mph - N/A   Clear
5:53 AM 33.1 °F 28.7 °F 27.0 °F 78% 29.90 in 10.0 mi SSW 4.6 mph - N/A   Mostly Cloudy
6:53 AM 33.1 °F 30.0 °F 27.0 °F 78% 29.91 in 10.0 mi SSW 3.5 mph - N/A   Overcast
7:53 AM 34.0 °F 29.8 °F 27.0 °F 75% 29.92 in 10.0 mi SSW 4.6 mph - N/A   Overcast
8:53 AM 36.0 °F 32.1 °F 27.0 °F 70% 29.92 in 10.0 mi SSW 4.6 mph - N/A   Overcast
9:53 AM 37.9 °F 30.5 °F 28.0 °F 68% 29.90 in 10.0 mi SW 11.5 mph - N/A   Overcast
10:53 AM 39.9 °F 34.5 °F 28.0 °F 63% 29.88 in 10.0 mi SW 8.1 mph - N/A   Overcast
11:53 AM 41.0 °F 33.9 °F 28.0 °F 60% 29.86 in 10.0 mi SSW 12.7 mph 20.7 mph N/A   Overcast
12:53 PM 41.0 °F 34.7 °F 28.9 °F 62% 29.84 in 10.0 mi SSW 10.4 mph - N/A   Overcast
1:53 PM 41.0 °F 34.3 °F 28.9 °F 62% 29.82 in 10.0 mi SW 11.5 mph 24.2 mph N/A   Overcast
2:53 PM 41.0 °F 34.3 °F 28.9 °F 62% 29.79 in 10.0 mi SSW 11.5 mph 19.6 mph N/A   Overcast
3:53 PM 41.0 °F 35.2 °F 26.1 °F 55% 29.81 in 10.0 mi SSW 9.2 mph - N/A   Overcast
4:53 PM 41.0 °F 36.4 °F 27.0 °F 57% 29.81 in 10.0 mi SSW 6.9 mph - N/A   Overcast
5:53 PM 41.0 °F 35.2 °F 26.1 °F 55% 29.83 in 10.0 mi SW 9.2 mph - N/A   Overcast
6:53 PM 39.9 °F 35.1 °F 27.0 °F 60% 29.85 in 10.0 mi SSW 6.9 mph - N/A   Mostly Cloudy
7:53 PM 39.0 °F 34.8 °F 28.0 °F 65% 29.86 in 10.0 mi SSW 5.8 mph - N/A   Mostly Cloudy
8:53 PM 39.9 °F 35.8 °F 28.0 °F 63% 29.87 in 10.0 mi SW 5.8 mph - N/A   Overcast
9:53 PM 39.9 °F 36.7 °F 28.0 °F 63% 29.87 in 10.0 mi SSW 4.6 mph - N/A   Mostly Cloudy
10:53 PM 41.0 °F 37.1 °F 28.0 °F 60% 29.87 in 10.0 mi SSW 5.8 mph - N/A   Overcast
11:53 PM 41.0 °F 38.0 °F 28.9 °F 62% 29.88 in 10.0 mi SSW 4.6 mph - N/A   Overcast